Location: Hawks Ness
(60.2333°N, 1.1667°W)
Time: 20:08:45
(UTC+00:00)

Cosmos 1763 Rocket - Pass Details

Date: 22 October 2019
Orbit: 733 x 779 km, 74.0° (Epoch: 18 November)

Event Time Altitude Azimuth Distance (km) Brightness Sun altitude
Exits shadow 04:36:45 - 327° (NNW) 3,111 6.4 -18.4°
Reaches altitude 10° 04:38:49 10° 326° (NNW) 2,306 5.7 -18.2°
Maximum altitude 04:44:03 83° 241° (WSW) 767 3.4 -17.6°
Drops below altitude 10° 04:49:11 10° 153° (SSE) 2,262 6.2 -16.9°
Sets 04:51:31 0° 153° (SSE) 3,176 7.0 -16.6°
